This demonstration page uses our WeatherBlox Daily Observations layout. Learn more.

41.55636, -103.73856

Hourly Observations for May 22, 2015

Temp ( °F °C ) Dew Point ( °F °C ) Humidity (%) Winds ( mph kmh ) Pressure ( in mb ) Visibility ( mi km ) Precip ( " mm )
12:53 am 00:53 Cloudy 52 11 45 7 77 77 SE 12 19 30.03 1017 10 16.09344 0 0
1:43 am 01:43 Cloudy 52 11 45 7 77 77 SE 10 17 30.03 1017 10 16.09344 0 0
1:53 am 01:53 Cloudy 52 11 45 7 77 77 SE 12 19 30.03 1017 10 16.09344 0 0
2:53 am 02:53 Cloudy 52 11 45 7 77 77 SE 10 17 30.03 1017 10 16.09344 0 0
3:53 am 03:53 Cloudy 48 9 45 7 87 87 E 7 11 30.06 1018 10 16.09344 0 0
4:53 am 04:53 Cloudy 48 9 45 7 87 87 undefined N/A 30.03 1017 10 16.09344 0 0
5:53 am 05:53 Cloudy 48 9 45 7 87 87 ESE 14 22 30.03 1017 10 16.09344 0 0
6:53 am 06:53 Cloudy 48 9 45 7 87 87 ESE 15 24 30.03 1017 10 16.09344 0 0
7:53 am 07:53 Cloudy 48 9 45 7 87 87 ESE 16 26 30.06 1018 9 14.484096 0 0
8:43 am 08:43 Cloudy with Light Rain 48 9 46 8 94 94 ESE 15 24 30.06 1018 4 6.437376 0.01 0.254
8:53 am 08:53 Cloudy with Light Rain 48 9 46 8 94 94 ESE 15 24 30.06 1018 5 8.04672 0.02 0.508
9:20 am 09:20 Cloudy with Light Rain 48 9 46 8 94 94 SE 15 24 30.06 1018 7 11.265408 0 0
9:51 am 09:51 Cloudy with Light Rain 48 9 N/A N/A ESE 17 28 30.06 1018 6 9.656064 0.02 0.508
9:52 am 09:52 Cloudy with Light Rain 48 9 N/A N/A ESE 17 28 30.06 1018 6 9.656064 0.02 0.508
10:16 am 10:16 Cloudy with Light Rain 50 10 N/A N/A ESE 16 26 30.06 1018 7 11.265408 0.01 0.254
10:38 am 10:38 Cloudy with Light Rain 48 9 N/A N/A ESE 16 26 30.06 1018 7 11.265408 0 0
10:53 am 10:53 Cloudy with Light Rain 50 10 N/A N/A ESE 14 22 30.06 1018 7 11.265408 0.02 0.508
11:23 am 11:23 Cloudy with Light Rain 50 10 N/A N/A ESE 16 26 30.06 1018 8 12.874752 0.02 0.508
11:53 am 11:53 Cloudy with Light Rain 48 9 N/A N/A ESE 16 26 30.03 1017 6 9.656064 0.03 0.762
12:53 pm 12:53 Cloudy 52 11 N/A N/A ESE 20 31 30 1016 10 16.09344 0.02 0.508
1:03 pm 13:03 Cloudy 52 11 N/A N/A SE 18 30 30 1016 10 16.09344 0 0
1:29 pm 13:29 Cloudy with Light Rain 50 10 N/A N/A ESE 17 28 30.03 1017 10 16.09344 0.001 0.001
1:53 pm 13:53 Cloudy 52 11 N/A N/A ESE 17 28 30 1016 10 16.09344 0.001 0.001
2:53 pm 14:53 Cloudy 50 10 45 7 82 82 ESE 18 30 30.03 1017 10 16.09344 0.001 0.001
3:53 pm 15:53 Cloudy 48 9 46 8 94 94 ESE 14 22 30.03 1017 10 16.09344 0.001 0.001
4:07 pm 16:07 Cloudy 48 9 46 8 94 94 ESE 17 28 30.03 1017 10 16.09344 0 0
4:35 pm 16:35 Cloudy 50 10 46 8 88 88 ESE 15 24 29.97 1015 10 16.09344 0 0
4:53 pm 16:53 Cloudy with Light Rain 48 9 46 8 94 94 ESE 17 28 30 1016 3 4.828032 0.001 0.001
4:59 pm 16:59 Cloudy with Light Rain 48 9 46 8 94 94 ESE 17 28 30 1016 2.5 4.02336 0.001 0.001
5:06 pm 17:06 Cloudy with Mist and Fog 48 9 48 9 100 100 ESE 20 31 30 1016 4 6.437376 0 0
5:25 pm 17:25 Cloudy with Mist and Fog 48 9 46 8 94 94 ESE 20 31 30 1016 6 9.656064 0.001 0.001
5:53 pm 17:53 Cloudy with Mist and Fog 48 9 46 8 94 94 ESE 17 28 30 1016 6 9.656064 0.001 0.001
6:19 pm 18:19 Cloudy 48 9 46 8 94 94 ESE 14 22 30 1016 10 16.09344 0 0
6:53 pm 18:53 Cloudy 48 9 46 8 94 94 ESE 18 30 30 1016 7 11.265408 0 0
7:01 pm 19:01 Cloudy with Mist and Fog 48 9 46 8 94 94 ESE 20 31 30 1016 6 9.656064 0 0
7:11 pm 19:11 Cloudy with Mist and Fog 48 9 46 8 94 94 ESE 14 22 30.03 1017 6 9.656064 0 0
7:29 pm 19:29 Cloudy with Mist and Fog 46 8 46 8 100 100 ESE 16 26 30.06 1018 5 8.04672 0 0
7:50 pm 19:50 Cloudy with Mist and Fog 46 8 46 8 100 100 ESE 17 28 30.06 1018 2 3.218688 0 0
7:53 pm 19:53 Cloudy with Mist and Fog 46 8 46 8 100 100 ESE 18 30 30.06 1018 2 3.218688 0 0
8:03 pm 20:03 Cloudy with Mist and Fog 46 8 46 8 100 100 ESE 15 24 30.06 1018 4 6.437376 0 0
8:53 pm 20:53 Cloudy 46 8 45 7 93 93 ESE 16 26 30.06 1018 10 16.09344 0 0
9:53 pm 21:53 Cloudy 46 8 45 7 93 93 ESE 15 24 30.09 1019 10 16.09344 0 0
10:23 pm 22:23 Cloudy 46 8 45 7 93 93 ESE 13 20 30.09 1019 8 12.874752 0 0
10:53 pm 22:53 Cloudy 46 8 45 7 93 93 ESE 12 19 30.06 1018 10 16.09344 0 0
11:20 pm 23:20 Cloudy 46 8 45 7 93 93 ESE 14 22 30.06 1018 8 12.874752 0 0
11:53 pm 23:53 Cloudy with Mist and Fog 45 7 45 7 100 100 ESE 12 19 30.06 1018 5 8.04672 0 0

Powered by AerisWeather